Volver al catálogo

TIRSAT

ActivoRadioaficionadoSSO
NORAD 58989·PAYLOAD·🇯🇵 Japan

Lanzado Feb 17, 2024 desde Tanegashima Space Center

Loading…

Próximos Pases (próximas 24 horas)

TLE

ActualizadoSource: Space-Track

Época: Sep 14, 2026, 09:27 UTC

1 58989U 24032C   26257.39439339  .00000814  00000-0  13559-3 0  9994
2 58989  97.9881 314.2852 0004133 207.5337 152.5652 14.72630747138218

Sigue TIRSAT en tiempo real con AllMySat

Download on the App Store